[[[{"header":{"parameterUnit":"kt","parameterCategory":2,"dx":1,"dy":1,"la1":30.253999710083008,"la2":30.299108505249023,"lo1":-89.0895004272461,"lo2":-89.04439544677734,"nx":28,"ny":28,"refTime":"2022-10-24T21:00:00:Z","depth":0,"parameterNumber":1,"parameterNumberName":"U-component_of_WINDS"},"data":[-2.6385,-2.6454,-2.6509,-2.6614,-2.6681,-2.6763,-2.681,-2.6877,-2.6944,-2.7049,-2.7119,-2.7183,-2.7273,-2.7372,-2.7451,-2.7479,-2.7508,-2.7492,-2.7527,-2.7547,-2.7554,-2.756,-2.7547,-2.7498,-2.7498,-2.7498,-2.7498,-2.7498,-2.6395,-2.6462,-2.6533,-2.664,-2.6702,-2.6751,-2.684,-2.6889,-2.6961,-2.7045,-2.7117,-2.7215,-2.7299,-2.7397,-2.7488,-2.7523,-2.7552,-2.7544,-2.7542,-2.7556,-2.7579,-2.7565,-2.7519,-2.7519,-2.7519,-2.7519,-2.7519,-2.7519,-2.6428,-2.6467,-2.6564,-2.6643,-2.6712,-2.6783,-2.6831,-2.6908,-2.698,-2.708,-2.7134,-2.7217,-2.7312,-2.745,-2.751,-2.7577,-2.7596,-2.7606,-2.7608,-2.7609,-2.7602,-2.7594,-2.7595,-2.7596,-2.7596,-2.7596,-2.7597,0,-2.6469,-2.6512,-2.6585,-2.6674,-2.6735,-2.681,-2.6888,-2.6919,-2.7032,-2.7086,-2.717,-2.7228,-2.7343,-2.7429,-2.7527,-2.7589,-2.7646,-2.7659,-2.7665,-2.764,-2.7605,-2.7624,-2.766,-2.7658,-2.7659,-2.7659,-2.766,-2.766,-2.6506,-2.6545,-2.6674,-2.6718,-2.6775,-2.6844,-2.6896,-2.6993,-2.7045,-2.7156,-2.7187,-2.7274,-2.7349,-2.7475,-2.7567,-2.7653,-2.7682,-2.7675,-2.7695,-2.7669,-2.7682,-2.7678,-2.7683,-2.7668,-2.7667,-2.7666,-2.7666,0,-2.6522,-2.6613,-2.6692,-2.6817,-2.6849,-2.6886,-2.6993,-2.7037,-2.7108,-2.7179,-2.7201,-2.7312,-2.7393,-2.7487,-2.7599,-2.7645,-2.7708,-2.7734,-2.7676,-2.7686,-2.7689,-2.7688,-2.7684,-2.7689,-2.774,-2.774,-2.7739,0,-2.6589,-2.6637,-2.6771,-2.6812,-2.687,-2.6966,-2.702,-2.7087,-2.717,-2.7227,-2.7307,-2.7358,-2.747,-2.7535,-2.7604,-2.7672,-2.7693,-2.7733,-2.7751,-2.7726,-2.7721,-2.7755,-2.7757,-2.7789,-2.7789,-2.7789,-2.7789,0,-2.6604,-2.6732,-2.68,-2.6844,-2.6982,-2.7012,-2.7071,-2.7166,-2.7217,-2.7298,-2.7333,-2.7421,-2.7469,-2.7536,-2.7623,-2.7633,-2.7709,-2.7741,-2.775,-2.7747,-2.7761,-2.7759,-2.7733,-2.7789,-2.7789,-2.7789,-2.7789,0,-2.6672,-2.6752,-2.6836,-2.6954,-2.6984,-2.7028,-2.7121,-2.7181,-2.7276,-2.7322,-2.7387,-2.7451,-2.7519,-2.7544,-2.7639,-2.7627,-2.7671,-2.7715,-2.7717,-2.7729,-2.7755,-2.7727,-2.7692,-2.7692,-2.774,-2.7739,-2.7739,0,-2.6664,-2.6774,-2.6858,-2.6936,-2.7,-2.7085,-2.7137,-2.7218,-2.7284,-2.7348,-2.7422,-2.7494,-2.7533,-2.7569,-2.7603,-2.7682,-2.7696,-2.7683,-2.7775,-2.7777,-2.7747,-2.7716,-2.7687,-2.7689,-2.7735,-2.7736,-2.7736,0,-2.6669,-2.6837,-2.6844,-2.6899,-2.7022,-2.7076,-2.7135,-2.7228,-2.7266,-2.7349,-2.7401,-2.7506,-2.754,-2.7598,-2.766,-2.769,-2.7689,-2.7723,-2.7727,-2.7713,-2.7741,-2.7713,-2.7713,-2.7724,-2.7725,-2.7726,-2.7733,0,-2.6752,-2.6819,-2.6845,-2.6962,-2.7019,-2.7073,-2.7172,-2.7219,-2.7273,-2.7341,-2.742,-2.7512,-2.7607,-2.7632,-2.7685,-2.7725,-2.7733,-2.7768,-2.78,-2.7779,-2.7784,-2.7786,-2.7785,-2.7786,-2.7787,-2.7788,0,0,-2.6721,-2.6819,-2.691,-2.6971,-2.7024,-2.7112,-2.7162,-2.7224,-2.7347,-2.7382,-2.7401,-2.756,-2.7634,-2.7719,-2.7721,-2.7759,-2.7776,-2.7779,-2.7788,-2.7787,-2.7787,-2.7791,-2.7791,-2.7791,-2.7791,-2.7792,-2.7792,0,-2.6772,-2.6844,-2.6892,-2.6961,-2.7065,-2.7136,-2.7147,-2.7266,-2.7313,-2.739,-2.7463,-2.7522,-2.7647,-2.7715,-2.7767,-2.7771,-2.7823,-2.7793,-2.7762,-2.7797,-2.7795,-2.7794,-2.7796,-2.7795,-2.7795,-2.7795,-2.7795,0,-2.6795,-2.6882,-2.6916,-2.7041,-2.7111,-2.7174,-2.7232,-2.7296,-2.7345,-2.7439,-2.7515,-2.7579,-2.7679,-2.7747,-2.7781,-2.7799,-2.7859,-2.7858,-2.7853,-2.7859,-2.7898,-2.7895,-2.7892,-2.7925,-2.7925,-2.7925,0,0,-2.6825,-2.6888,-2.7013,-2.706,-2.7098,-2.7204,-2.7248,-2.7306,-2.7394,-2.7429,-2.7512,-2.7596,-2.767,-2.7716,-2.7791,-2.7851,-2.788,-2.787,-2.7864,-2.7858,-2.7861,-2.7898,-2.7896,-2.7925,-2.7925,-2.7925,0,0,-2.684,-2.6986,-2.7025,-2.7092,-2.7173,-2.7299,-2.7324,-2.7375,-2.7452,-2.7457,-2.7559,-2.7586,-2.7651,-2.7711,-2.7702,-2.7804,-2.7833,-2.7837,-2.7762,-2.7756,-2.775,-2.7734,-2.7774,0,0,0,0,0,-2.6943,-2.6968,-2.7002,-2.7028,-2.7187,-2.728,-2.7301,-2.7386,-2.7405,-2.7423,-2.7501,-2.7553,-2.7727,-2.7721,-2.7746,-2.7755,-2.7927,-2.7927,-2.7926,-2.7844,-2.7836,-2.783,0,0,0,0,0,0,-2.6954,-2.6985,-2.7002,-2.7127,-2.7164,-2.728,-2.7331,-2.7355,-2.7405,-2.7414,-2.7536,-2.7557,-2.7631,-2.7715,-2.7735,-2.7743,-2.7767,-2.7927,-2.7927,-2.7926,-2.7841,-2.7835,-2.7829,0,0,0,0,0,-2.6963,-2.6988,-2.7221,-2.7128,-2.7159,-2.7278,-2.7331,-2.7351,-2.7392,-2.7513,-2.7535,-2.7451,-2.7629,-2.7653,-2.7727,-2.7731,-2.7753,-2.7761,-2.7927,-2.7926,-2.7926,-2.7838,0,0,0,0,0,0,-2.697,-2.7008,-2.7229,-2.7242,-2.7124,-2.7274,-2.73,-2.7347,-2.7489,-2.7511,-2.7432,-2.7437,-2.7628,-2.7646,-2.7664,-2.7722,-2.7742,-2.775,-2.7754,-2.7926,-2.7926,-2.7926,0,0,0,0,0,0,-2.6995,-2.7018,-2.7236,-2.7227,-2.724,-2.7269,-2.7292,-2.7368,-2.7489,-2.7401,-2.741,-2.7433,-2.7602,-2.7642,-2.7656,-2.7771,-2.7733,-2.7741,-2.7746,-2.7749,-2.7926,-2.7926,0,0,0,0,0,0,-2.7006,-2.7027,-2.7224,-2.7234,-2.7245,-2.7396,-2.7338,-2.7496,-2.7481,-2.7393,-2.7482,-2.7483,-2.7596,-2.7612,-2.765,-2.7759,-2.7768,-2.7734,-2.7739,-2.7742,-2.7744,0,0,0,0,0,0,0,-2.7016,-2.6861,-2.7153,-2.724,-2.725,-2.7361,-2.7365,-2.7368,-2.7481,-2.7482,-2.7482,-2.7483,-2.7692,-2.77,-2.7708,-2.7749,0,0,-2.7733,-2.7736,0,0,0,0,0,0,0,0,-2.6854,-2.6859,-2.7153,-2.7156,-2.7158,-2.7362,-2.7365,-2.7367,-2.7481,-2.7482,-2.7482,-2.7482,-2.7694,-2.7701,-2.7707,0,0,0,0,0,0,0,0,0,0,0,0,0,0,0,-2.7153,-2.7156,0,-2.7362,-2.7364,-2.7367,-2.7481,-2.7482,-2.7482,-2.7482,-2.7696,-2.7701,-2.7707,0,0,0,0,0,0,0,0,0,0,0,0,0,0,0,0,0,0,0,0,0,0,0,0,0,0,0,0,0,0,0,0,0,0,0,0,0,0,0,0,0,0,0,0,0,0,0,0,0,0,0,0,0,0,0,0,0,0,0,0,0,0,0,0,0,0,0,0,0]}],[{"header":{"parameterUnit":"kt","parameterCategory":2,"dx":1,"dy":1,"la1":30.253999710083008,"la2":30.299108505249023,"lo1":-89.0895004272461,"lo2":-89.04439544677734,"nx":28,"ny":28,"refTime":"2022-10-24T21:00:00:Z","depth":0,"parameterNumber":2,"parameterNumberName":"V-component_of_WINDS"},"data":[12.289,12.3045,12.3087,12.3281,12.3349,12.3488,12.3549,12.3632,12.3706,12.3871,12.3971,12.4022,12.4107,12.4232,12.4338,12.4357,12.4401,12.4428,12.4445,12.4294,12.4276,12.4258,12.4227,12.4436,12.4436,12.4598,12.46,12.4601,12.2777,12.2849,12.2964,12.3102,12.32,12.32,12.3306,12.3387,12.3508,12.36,12.3701,12.3846,12.3963,12.404,12.4158,12.4226,12.423,12.4255,12.4252,12.4265,12.4104,12.4071,12.425,12.425,12.425,12.425,12.425,12.425,12.2584,12.2675,12.2784,12.2909,12.2988,12.3079,12.3171,12.3235,12.3343,12.3476,12.3498,12.3633,12.3728,12.3887,12.3947,12.4051,12.4029,12.4066,12.4076,12.4086,12.4093,12.3858,12.4071,12.4071,12.407,12.407,12.407,0,12.2456,12.2485,12.2597,12.2722,12.2814,12.2913,12.3009,12.3066,12.3133,12.3218,12.3346,12.3424,12.3576,12.3697,12.3813,12.3869,12.3872,12.3875,12.3901,12.3896,12.3876,12.3891,12.363,12.3869,12.3867,12.3866,12.3865,12.3864,12.2266,12.2366,12.2498,12.2571,12.2635,12.275,12.2827,12.2879,12.2956,12.3078,12.3153,12.3274,12.3375,12.3565,12.3632,12.3743,12.3746,12.3834,12.3762,12.3753,12.375,12.3745,12.3756,12.3847,12.3849,12.3851,12.3853,0,12.2155,12.2222,12.2389,12.2508,12.2541,12.2641,12.2741,12.283,12.288,12.301,12.3042,12.312,12.324,12.3293,12.3438,12.3461,12.3622,12.362,12.3591,12.3595,12.368,12.3672,12.3946,12.3985,12.3766,12.3768,12.3769,0,12.202,12.2148,12.2239,12.2333,12.2476,12.2527,12.2665,12.2723,12.2808,12.2911,12.2925,12.302,12.3072,12.3173,12.3208,12.3348,12.3374,12.34,12.3409,12.3401,12.3398,12.3442,12.3433,12.3419,12.3418,12.3417,12.3416,0,12.1843,12.204,12.2192,12.2247,12.2385,12.2454,12.2513,12.2609,12.2681,12.2783,12.283,12.2942,12.3004,12.3089,12.3134,12.3084,12.3305,12.3245,12.3332,12.3332,12.338,12.3377,12.3604,12.3414,12.3413,12.3413,12.3412,0,12.1744,12.1853,12.2062,12.2178,12.2227,12.2325,12.2444,12.254,12.2639,12.2669,12.2748,12.2764,12.289,12.2827,12.3001,12.2924,12.2983,12.3019,12.3027,12.3043,12.2972,12.3096,12.3306,12.3331,12.3055,12.3052,12.3049,0,12.1524,12.1753,12.18,12.1996,12.211,12.2123,12.2231,12.2319,12.2369,12.2469,12.2521,12.2633,12.2597,12.2639,12.2718,12.2775,12.2875,12.2763,12.2902,12.2906,12.288,12.3073,12.3093,12.3254,12.3012,12.3016,12.3019,0,12.1362,12.1533,12.1564,12.163,12.1758,12.1851,12.1975,12.21,12.2165,12.2259,12.2364,12.252,12.2501,12.2569,12.2593,12.2672,12.2809,12.2639,12.2642,12.267,12.2996,12.3015,12.3042,12.2806,12.2811,12.2814,12.2989,0,12.1203,12.1326,12.1414,12.1557,12.1638,12.1762,12.1825,12.1901,12.1919,12.1969,12.2121,12.2203,12.2325,12.2367,12.2383,12.2548,12.2529,12.2505,12.2449,12.2574,12.2633,12.2657,12.2357,12.2355,12.2354,12.2353,0,0,12.0978,12.1155,12.1202,12.1327,12.1399,12.1411,12.1539,12.1608,12.1747,12.1795,12.1764,12.1997,12.2064,12.2242,12.2285,12.2333,12.2368,12.2321,12.2514,12.2531,12.2548,12.261,12.2634,12.2351,12.2351,12.235,12.235,0,12.0934,12.1012,12.1139,12.1215,12.133,12.1378,12.1408,12.1521,12.1559,12.1709,12.1713,12.181,12.1993,12.2065,12.2126,12.2301,12.2298,12.2332,12.241,12.25,12.2519,12.2536,12.2601,12.2624,12.2347,12.2347,12.2348,0,12.0788,12.0875,12.0944,12.1109,12.1182,12.1296,12.1255,12.1376,12.146,12.1461,12.161,12.1663,12.1763,12.1922,12.1995,12.1969,12.2231,12.2157,12.2166,12.2175,12.2265,12.2288,12.2309,12.204,12.2039,12.2038,0,0,12.0741,12.0856,12.0964,12.1104,12.115,12.1223,12.1289,12.1314,12.1408,12.1445,12.1514,12.1601,12.1708,12.1777,12.188,12.2046,12.207,12.2117,12.2131,12.2143,12.2159,12.2252,12.2275,12.2033,12.2033,12.2033,0,0,12.0718,12.0851,12.0854,12.1026,12.1117,12.123,12.1311,12.1316,12.1416,12.1408,12.1451,12.1477,12.1626,12.1677,12.1606,12.1861,12.1804,12.1822,12.1823,12.1842,12.1856,12.1842,12.1571,0,0,0,0,0,12.0707,12.0835,12.0837,12.0875,12.1081,12.1229,12.1255,12.1298,12.1258,12.1322,12.138,12.1372,12.1648,12.1586,12.162,12.17,12.197,12.1982,12.1992,12.2033,12.2052,12.2068,0,0,0,0,0,0,12.0722,12.0769,12.0834,12.0951,12.0998,12.1225,12.1168,12.1183,12.1253,12.1249,12.1361,12.1375,12.141,12.1571,12.1601,12.1676,12.1561,12.1975,12.1984,12.1993,12.2039,12.2055,12.2069,0,0,0,0,0,12.0735,12.0773,12.1092,12.095,12.099,12.1077,12.1163,12.1175,12.123,12.132,12.1334,12.1256,12.1411,12.144,12.1589,12.1661,12.154,12.1551,12.1981,12.1988,12.1995,12.2047,0,0,0,0,0,0,12.0744,12.0783,12.1101,12.1115,12.0905,12.1065,12.1092,12.1169,12.1296,12.1312,12.1216,12.1212,12.1414,12.1435,12.1457,12.1654,12.1523,12.1535,12.1542,12.1987,12.1992,12.1997,0,0,0,0,0,0,12.0763,12.0795,12.1108,12.105,12.1058,12.1054,12.1078,12.1209,12.1297,12.1184,12.1185,12.1212,12.1379,12.1433,12.145,12.1653,12.151,12.1521,12.1529,12.1534,12.1991,12.1996,0,0,0,0,0,0,12.0777,12.0804,12.1047,12.1053,12.1059,12.1215,12.117,12.1376,12.1253,12.1178,12.1242,12.1238,12.1377,12.1395,12.1445,12.164,12.1649,12.1511,12.1518,12.1523,12.1527,0,0,0,0,0,0,0,12.0788,12.0598,12.1021,12.1054,12.106,12.1242,12.1246,12.1249,12.1252,12.1248,12.1243,12.124,12.1448,12.146,12.1472,12.1631,0,0,12.1509,12.1515,0,0,0,0,0,0,0,0,12.0587,12.0595,12.1021,12.1024,12.1027,12.1242,12.1245,12.1248,12.1251,12.1248,12.1244,12.1241,12.1451,12.1461,12.1471,0,0,0,0,0,0,0,0,0,0,0,0,0,0,0,12.1021,12.1024,0,12.1243,12.1245,12.1248,12.1251,12.1248,12.1245,12.1242,12.1454,12.1462,12.147,0,0,0,0,0,0,0,0,0,0,0,0,0,0,0,0,0,0,0,0,0,0,0,0,0,0,0,0,0,0,0,0,0,0,0,0,0,0,0,0,0,0,0,0,0,0,0,0,0,0,0,0,0,0,0,0,0,0,0,0,0,0,0,0,0,0,0,0,0]}]]]